When you browse on this site, cookies collect data to enhance your experience and personalize the content and advertising you see.
Visit our Privacy Policy to learn more. By continuing to use the site, you agree to this use of cookies and data.
EN

Hourly Weather Northallerton

Today, 24 September, Thursday

Time Temperature Precipitation Wind Pressure Humidity
00:00 +8°C° 0 mm 3 mps 742 mmHg 91%
01:00 +8°C° 0.2 mm 2 mps 741 mmHg 91%
02:00 +7°C° 0.2 mm 2 mps 741 mmHg 91%
03:00 +7°C° 0.2 mm 1 mps 741 mmHg 91%
04:00 +7°C° 0 mm 1 mps 741 mmHg 91%
05:00 +7°C° 0 mm 1 mps 741 mmHg 91%
06:00 +7°C° 0 mm 1 mps 741 mmHg 93%
07:00 +7°C° 0.3 mm 2 mps 741 mmHg 92%
08:00 +8°C° 0.3 mm 2 mps 741 mmHg 90%
09:00 +9°C° 0.3 mm 2 mps 741 mmHg 89%
10:00 +9°C° 0.7 mm 2 mps 741 mmHg 88%
11:00 +9°C° 0.7 mm 2 mps 741 mmHg 86%
12:00 +9°C° 0.7 mm 2 mps 741 mmHg 85%
13:00 +10°C° 0.2 mm 2 mps 741 mmHg 83%
14:00 +10°C° 0.2 mm 2 mps 741 mmHg 81%
15:00 +12°C° 0.2 mm 2 mps 741 mmHg 79%
16:00 +10°C° 0.2 mm 3 mps 741 mmHg 83%
17:00 +8°C° 0.2 mm 4 mps 741 mmHg 87%
18:00 +8°C° 0.2 mm 4 mps 742 mmHg 91%
19:00 +7°C° 0.3 mm 5 mps 742 mmHg 91%
20:00 +7°C° 0.3 mm 5 mps 743 mmHg 91%
21:00 +7°C° 0.3 mm 5 mps 743 mmHg 92%
22:00 +7°C° 0.1 mm 5 mps 743 mmHg 90%
23:00 +7°C° 0.1 mm 6 mps 744 mmHg 88%

Tomorrow, 25 September, Friday

Time Temperature Precipitation Wind Pressure Humidity
00:00 +8°C° 0.1 mm 6 mps 744 mmHg 86%
01:00 +6°C° 0.1 mm 7 mps 745 mmHg 85%
02:00 +6°C° 0.1 mm 7 mps 745 mmHg 84%
03:00 +5°C° 0.1 mm 7 mps 746 mmHg 83%
04:00 +5°C° 0 mm 8 mps 746 mmHg 83%
05:00 +5°C° 0 mm 8 mps 746 mmHg 84%
06:00 +5°C° 0 mm 8 mps 747 mmHg 84%
07:00 +6°C° 0.1 mm 9 mps 748 mmHg 82%
08:00 +7°C° 0.1 mm 10 mps 748 mmHg 79%
09:00 +7°C° 0.1 mm 10 mps 749 mmHg 76%
10:00 +8°C° 0.1 mm 10 mps 749 mmHg 73%
11:00 +8°C° 0.1 mm 10 mps 750 mmHg 71%
12:00 +9°C° 0.1 mm 10 mps 751 mmHg 68%
13:00 +9°C° 0.1 mm 10 mps 751 mmHg 69%
14:00 +9°C° 0.1 mm 10 mps 752 mmHg 70%
15:00 +9°C° 0.1 mm 10 mps 753 mmHg 72%
16:00 +9°C° 0 mm 8 mps 753 mmHg 72%
17:00 +8°C° 0 mm 7 mps 754 mmHg 73%
18:00 +7°C° 0 mm 6 mps 754 mmHg 74%
19:00 +7°C° 0 mm 6 mps 755 mmHg 74%
20:00 +6°C° 0 mm 5 mps 755 mmHg 74%
21:00 +6°C° 0 mm 5 mps 756 mmHg 74%
22:00 +5°C° 0 mm 5 mps 756 mmHg 75%
23:00 +5°C° 0 mm 5 mps 756 mmHg 75%

Day after tomorrow, 26 September, Saturday

Time Temperature Precipitation Wind Pressure Humidity
00:00 +5°C° 0 mm 5 mps 756 mmHg 76%
01:00 +3°C° 0 mm 5 mps 756 mmHg 77%
02:00 +3°C° 0 mm 5 mps 756 mmHg 78%
03:00 +3°C° 0 mm 5 mps 756 mmHg 79%
04:00 +2°C° 0 mm 5 mps 756 mmHg 80%
05:00 +2°C° 0 mm 5 mps 756 mmHg 81%
06:00 +3°C° 0 mm 4 mps 756 mmHg 82%
07:00 +3°C° 0 mm 5 mps 756 mmHg 79%
08:00 +5°C° 0 mm 6 mps 756 mmHg 76%
09:00 +8°C° 0 mm 7 mps 756 mmHg 73%
10:00 +8°C° 0.1 mm 7 mps 756 mmHg 72%
11:00 +9°C° 0.1 mm 8 mps 756 mmHg 71%
12:00 +10°C° 0.1 mm 8 mps 756 mmHg 70%
13:00 +9°C° 0.1 mm 8 mps 757 mmHg 71%
14:00 +9°C° 0.1 mm 8 mps 757 mmHg 71%
15:00 +9°C° 0.1 mm 7 mps 757 mmHg 72%
16:00 +8°C° 0 mm 7 mps 757 mmHg 74%
17:00 +8°C° 0 mm 6 mps 758 mmHg 76%
18:00 +7°C° 0 mm 6 mps 758 mmHg 79%
19:00 +7°C° 0 mm 6 mps 758 mmHg 79%
20:00 +7°C° 0 mm 6 mps 758 mmHg 80%
21:00 +7°C° 0 mm 6 mps 758 mmHg 80%
22:00 +7°C° 0 mm 6 mps 758 mmHg 80%
23:00 +7°C° 0 mm 6 mps 758 mmHg 80%

27 September, Sunday

Time Temperature Precipitation Wind Pressure Humidity
00:00 +7°C° 0 mm 6 mps 758 mmHg 80%
01:00 +7°C° 0 mm 6 mps 758 mmHg 79%
02:00 +7°C° 0 mm 6 mps 758 mmHg 79%
03:00 +7°C° 0 mm 6 mps 758 mmHg 79%
04:00 +7°C° 0 mm 6 mps 758 mmHg 80%
05:00 +5°C° 0 mm 6 mps 758 mmHg 82%
06:00 +4°C° 0 mm 6 mps 758 mmHg 84%
07:00 +5°C° 0 mm 6 mps 758 mmHg 82%
08:00 +7°C° 0 mm 6 mps 758 mmHg 80%
09:00 +8°C° 0 mm 6 mps 758 mmHg 78%
10:00 +9°C° 0 mm 6 mps 758 mmHg 75%
11:00 +9°C° 0 mm 5 mps 758 mmHg 73%
12:00 +10°C° 0 mm 5 mps 758 mmHg 71%
13:00 +12°C° 0 mm 5 mps 758 mmHg 70%
14:00 +12°C° 0 mm 4 mps 758 mmHg 69%
15:00 +12°C° 0 mm 4 mps 758 mmHg 69%
16:00 +10°C° 0 mm 3 mps 758 mmHg 74%
17:00 +9°C° 0 mm 2 mps 758 mmHg 80%
18:00 +9°C° 0 mm 1 mps 758 mmHg 85%
19:00 +8°C° 0 mm 1 mps 758 mmHg 86%
20:00 +8°C° 0 mm 1 mps 758 mmHg 86%
21:00 +7°C° 0 mm 1 mps 758 mmHg 87%
22:00 +7°C° 0 mm 1 mps 758 mmHg 85%
23:00 +7°C° 0 mm 1 mps 758 mmHg 84%

28 September, Monday

Time Temperature Precipitation Wind Pressure Humidity
00:00 +7°C° 0 mm 1 mps 757 mmHg 82%
01:00 +7°C° 0 mm 1 mps 757 mmHg 80%
02:00 +7°C° 0 mm 1 mps 757 mmHg 77%
03:00 +6°C° 0 mm 2 mps 757 mmHg 74%
04:00 +7°C° 0 mm 2 mps 756 mmHg 74%
05:00 +7°C° 0 mm 2 mps 756 mmHg 74%
06:00 +8°C° 0 mm 2 mps 756 mmHg 73%
07:00 +8°C° 0.1 mm 2 mps 756 mmHg 75%
08:00 +9°C° 0.1 mm 2 mps 755 mmHg 78%
09:00 +10°C° 0.1 mm 2 mps 755 mmHg 80%
10:00 +12°C° 0 mm 2 mps 755 mmHg 79%
11:00 +13°C° 0 mm 3 mps 755 mmHg 78%
12:00 +16°C° 0 mm 3 mps 755 mmHg 77%
13:00 +16°C° 0 mm 3 mps 754 mmHg 77%
14:00 +17°C° 0 mm 3 mps 754 mmHg 77%
15:00 +18°C° 0 mm 4 mps 754 mmHg 77%
16:00 +17°C° 0.3 mm 3 mps 754 mmHg 82%
17:00 +14°C° 0.3 mm 3 mps 754 mmHg 86%
18:00 +14°C° 0.3 mm 2 mps 754 mmHg 91%
19:00 +14°C° 0.4 mm 2 mps 755 mmHg 91%
20:00 +13°C° 0.4 mm 2 mps 755 mmHg 92%
21:00 +13°C° 0.4 mm 2 mps 755 mmHg 92%
22:00 +12°C° 0 mm 2 mps 756 mmHg 92%
23:00 +10°C° 0 mm 2 mps 756 mmHg 92%

29 September, Tuesday

Time Temperature Precipitation Wind Pressure Humidity
00:00 +9°C° 0 mm 2 mps 756 mmHg 92%
01:00 +9°C° 0 mm 2 mps 756 mmHg 92%
02:00 +8°C° 0 mm 2 mps 757 mmHg 92%
03:00 +8°C° 0 mm 2 mps 757 mmHg 92%
04:00 +7°C° 0 mm 2 mps 757 mmHg 92%
05:00 +7°C° 0 mm 2 mps 757 mmHg 92%
06:00 +7°C° 0 mm 2 mps 758 mmHg 92%
07:00 +8°C° 0 mm 2 mps 758 mmHg 87%
08:00 +10°C° 0 mm 1 mps 758 mmHg 83%
09:00 +12°C° 0 mm 1 mps 758 mmHg 79%
10:00 +13°C° 0 mm 1 mps 758 mmHg 74%
11:00 +14°C° 0 mm 1 mps 758 mmHg 68%
12:00 +14°C° 0 mm 1 mps 758 mmHg 63%
13:00 +15°C° 0 mm 1 mps 758 mmHg 62%
14:00 +15°C° 0 mm 1 mps 758 mmHg 61%
15:00 +15°C° 0 mm 1 mps 757 mmHg 60%
16:00 +13°C° 0 mm 1 mps 757 mmHg 66%
17:00 +12°C° 0 mm 1 mps 757 mmHg 72%
18:00 +11°C° 0 mm 1 mps 757 mmHg 78%
19:00 +10°C° 0 mm 1 mps 757 mmHg 81%
20:00 +10°C° 0 mm 1 mps 757 mmHg 84%
21:00 +9°C° 0 mm 1 mps 757 mmHg 87%
22:00 +9°C° 0 mm 1 mps 756 mmHg 88%
23:00 +8°C° 0 mm 1 mps 756 mmHg 89%
Show more